Regional Weather Roundup
Issued by NWS

Home | Current Version | Previous Version | Graphics & Text | Print | Product List | Glossary On
Versions: 1 2 3 4 5 6 7 8 9 10 11 12 13 14 15 16 17 18 19 20 21 22 23 24 25 26 27 28 29 30 31 32 33 34 35 36 37 38 39 40 41 42 43 44 45 46 47 48 49 50
000
ASUS45 KBOU 040707
RWRCO

WEATHER ROUNDUP FOR COLORADO
NATIONAL WEATHER SERVICE DENVER/BOULDER CO
100 AM MDT TUE AUG 04 2015

NOTE: "FAIR" INDICATES FEW OR NO CLOUDS BELOW 12000 FEET WITH NO
SIGNIFICANT WEATHER AND/OR OBSTRUCTIONS TO VISIBILITY.

COZ001>005-013-030-031-040800-
...NORTHWEST COLORADO...

CITY           SKY/WX    TMP DP  RH WIND       PRES   REMARKS
CRAIG          PTCLDY    56  51  84 CALM      30.20R
HAYDEN         MOCLDY    55  52  88 CALM      30.21R
MEEKER         CLEAR     51  48  89 E3        30.21S
MOUNT WERNER   NOT AVBL
STEAMBOAT SPGS   N/A     53  52  96 E5        30.22R
WALDEN         MOCLDY    50  45  81 W6G12     30.27R
$$

COZ006>008-011-040800-
...WEST CENTRAL VALLEYS...

CITY           SKY/WX    TMP DP  RH WIND       PRES   REMARKS
GRAND JUNCTION CLOUDY    68  48  48 NE8       30.09F
MONTROSE       MOCLDY    65  48  54 NE6       30.22R
EAGLE          CLEAR     55  48  76 CALM      30.22R
RIFLE          PTCLDY    61  55  81 CALM      30.14R
DELTA          RAIN      67  55  65 E10       30.15F
NUCLA          PTCLDY    64  46  52 NW9       30.26F
$$

COZ017>023-064>068-040800-
...SOUTHWEST COLORADO...

CITY           SKY/WX    TMP DP  RH WIND       PRES   REMARKS
DURANGO        CLEAR     57  41  55 N7        30.22F
CORTEZ         LGT RAIN  65  47  52 NW17G30   30.21R
PAGOSA SPRINGS CLEAR     51  47  87 CALM      30.31F
TELLURIDE      MOCLDY    50  42  73 SE7       30.44S
WOLF CREEK PAS NOT AVBL
$$

COZ009-010-012-014-032>034-037-058>063-040800-
...CENTRAL COLORADO...

CITY           SKY/WX    TMP DP  RH WIND       PRES   REMARKS
ASPEN          PTCLDY    52  44  74 S7        30.29R
BUENA VISTA    CLEAR     50  45  83 CALM      30.30S
COPPER MTN     PTCLDY    48  30  49 W15G26    30.55F
BERTHOUD PASS  FAIR      41  32  70 W20G28    30.57S
COTTONWOOD PAS CLEAR     57  39  51 NW3       30.41F
GUNNISON       CLEAR     54  48  82 CALM      30.34R
KREMMLING      CLEAR     50  41  71 CALM      30.25R
LEADVILLE      CLEAR     49  36  61 N7        30.41S
MONARCH PASS   CLEAR     43  39  87 W23       30.66S
SALIDA         CLEAR     57  50  77 CALM      30.35S
SUNLIGHT       PTCLDY    48  43  81 CALM      30.48S
WILKERSON PASS NOT AVBL
$$

COZ069>075-040800-
...SAN LUIS VALLEY/SANGRE DE CRISTO MOUNTAINS...

CITY           SKY/WX    TMP DP  RH WIND       PRES   REMARKS
ALAMOSA        CLEAR     52  49  89 SE5       30.29R
LA VETA PASS   CLEAR     46  43  87 MISG      30.47S
SAGUACHE       CLEAR     50  46  87 N6        30.31F
$$

COZ035-036-038>040-040800-
...NORTHERN COLORADO FRONT RANGE...

CITY           SKY/WX    TMP DP  RH WIND       PRES   REMARKS
DENVER INTL AP PTCLDY    63  52  67 W7        30.08R
DMNS CITY PARK   N/A     62  53  73 W3        30.07F
AURORA         PTCLDY    62  52  70 NW5       30.10S
FRONT RANGE AP NOT AVBL
ERIE MUNI ARPT PTCLDY    60  54  83 CALM      30.07S
BOULDER MUN AP PTCLDY    64  52  63 CALM      30.07F
CENTENNIAL     PTCLDY    63  49  60 S3        30.10F
BROOMFIELD     CLEAR     63  54  72 NW5       30.10S
FORT COLLINS   PTCLDY    63  55  77 SE7       30.06F
LONGMONT       PTCLDY    64  55  71 CALM      30.07F
$$

COZ041-046-047-076>085-087-088-040800-
...PIKES PEAK/PALMER DIVIDE AND SOUTHERN FOOTHILLS...

CITY           SKY/WX    TMP DP  RH WIND       PRES   REMARKS
COLO. SPRINGS  PTCLDY    59  54  83 NW7       30.17F
A. F. ACADEMY  CLEAR     54  53  99 N7        30.18F
ELLICOTT       CLEAR    N/A N/A N/A SW8       30.15F
FALCON         CLEAR     58  52  80 W12       30.20F
FORT CARSON    CLEAR     56  53  87 N3        30.14S
LIMON          CLOUDY    57  54  89 CALM      30.10F
MONUMENT HILL  CLEAR     55  48  76 SW10      30.20F
TRINIDAD       PTCLDY    59  55  87 S6        30.19R
$$

COZ042>045-048>051-090-091-040800-
...NORTHEAST COLORADO...

CITY           SKY/WX    TMP DP  RH WIND       PRES   REMARKS
GREELEY ARPT   PTCLDY    63  54  72 W7        30.05R
AKRON          MOCLDY    62  50  64 S8        30.05F
BURLINGTON     CLOUDY    65  60  84 CALM      30.03F
WRAY           CLEAR     61  53  75 CALM      30.00F
STERLING       MOCLDY    59  54  82 SW5       30.02S
HOLYOKE        CLEAR     63  55  77 SW3       30.01S
FORT MORGAN    MOCLDY    60  49  69 CALM      30.05F
$$

COZ086-089-092>099-040800-
...SOUTHEAST COLORADO...

CITY           SKY/WX    TMP DP  RH WIND       PRES   REMARKS
PUEBLO         CLEAR     60  56  86 W6        30.09F
LA JUNTA       CLOUDY    64  58  80 E8        30.03F
LAMAR          LGT RAIN  63  60  90 W15       30.03R
SPRINGFIELD      N/A     63  57  81 NW18G30   30.11R
$$



USA.gov is the U.S. government's official web portal to all federal, state and local government web resources and services.